Home > Weather > Cupertino > Past weeks

Flag for U.S.A. Weather for the Past 2 Weeks in Cupertino, California, U.S.A.

Now
48 °F

Clear.


Feels Like: 48 °F
Forecast: 48 / 72 °F
Wind: No wind

Location: Moffett Field

Current Time: Feb 10, 2016 at 7:34:51 AM

Latest Report: Feb 10, 2016 at 6:56 AM


Visibility: 10 mi

Pressure: 30.26 "Hg

Humidity: 80%

Dew point: 42 °F

Location of CupertinoLocation

Historic Weather in Cupertino — Graph

°F

Cupertino Temperature Yesterday

Maximum temperature yesterday: 73 °F (at 1:56 PM)
Minimum temperature yesterday: 48 °F (at 6:56 AM)
Average temperature yesterday: 59 °F

High & Low Weather Summary for the Past Weeks

 TemperatureHumidityPressure
High74 °F (Feb 8, 2:56 PM)96% (Jan 29, 11:56 PM)30.48 "Hg (Jan 29, 11:56 PM)
Low40 °F (Feb 3, 3:56 AM)31% (Feb 7, 3:56 PM)29.78 "Hg (Jan 31, 1:56 PM)
Average54 °F69%30.24 "Hg
* Reported Jan 26 5:56 AM — Feb 10 5:56 AM, Cupertino, Weather by CustomWeather, © 2016

Note: Actual official high and low records may vary slightly from our data, if they occured in-between our weather recording intervals... More about our weather records

Advertising

Cupertino Weather History for the Previous 24 Hours

 ConditionsComfort  
Time TempWeatherWind HumidityBarometerVisibility
5:56 AM
Wed, Feb 10
48 °FClear.3 mph80%30.24 "Hg10 mi
4:56 AM50 °FClear.No wind74%30.24 "Hg10 mi
3:56 AM50 °FClear.No wind74%30.21 "Hg10 mi
2:56 AM50 °FClear.6 mph80%30.22 "Hg10 mi
1:56 AM49 °FClear.No wind80%30.23 "Hg10 mi
12:56 AM51 °FClear.No wind80%30.21 "Hg10 mi
11:56 PM
Tue, Feb 9
55 °FClear.No wind74%30.22 "Hg10 mi
10:56 PM56 °FClear.No wind75%30.20 "Hg10 mi
9:56 PM56 °FClear.No wind75%30.18 "Hg10 mi
8:56 PM57 °FClear.5 mph72%30.18 "Hg10 mi
7:56 PM61 °FClear.No wind67%30.18 "Hg10 mi
6:56 PM61 °FClear.No wind72%30.18 "Hg10 mi
5:56 PM64 °FClear.5 mph63%30.18 "Hg10 mi
4:56 PM66 °FSunny.7 mph61%30.16 "Hg10 mi
3:56 PM71 °FSunny.8 mph45%30.15 "Hg10 mi
2:56 PM68 °FSunny.8 mph51%30.14 "Hg10 mi
1:56 PM73 °FSunny.7 mph43%30.13 "Hg10 mi
12:56 PM70 °FSunny.6 mph53%30.15 "Hg10 mi
11:56 AM68 °FSunny.3 mph53%30.19 "Hg10 mi
10:56 AM64 °FSunny.No wind54%30.24 "Hg10 mi
9:56 AM61 °FSunny.5 mph65%30.25 "Hg10 mi
8:56 AM56 °FSunny.No wind72%30.24 "Hg10 mi
7:56 AM51 °FSunny.3 mph74%30.23 "Hg10 mi
Weather by CustomWeather, © 2016

See weather overviewHow to use our weather pages